Station: Macquarie Island  

  Atmospheric Gas Attenuation - ITU Rec 676-11   ----------------- dB/100km -----------------
Date Time Temp RH % AH g/m3 Dew Point Wind Direction Speed kph Gust kph Barometer mB Rainfall Since 9am 24GHz 47GHz 76GHz 122GHz 134GHz 241GHz
07/09 07:50 4.3 93 6.04 3.3 30 35 994.4 1.2 14.5 23.7 33.0 86.5 73.5 250.1
07/09 07:40 4.4 93 6.08 3.4 32 37 994.5 1 14.6 23.7 33.1 86.8 73.9 251.7
07/09 07:30 4.4 92 6.01 3.2 33 41 994.7 0.8 14.4 23.6 32.8 86.1 73.0 248.4
07/09 07:20 4.4 92 6.01 3.2 37 44 994.7 0.8 14.4 23.6 32.8 86.1 73.0 248.4
07/09 07:10 4.4 92 6.01 3.2 37 44 994.8 0.8 14.4 23.6 32.8 86.1 73.0 248.4
07/09 07:00 4.4 93 6.08 3.4 37 43 994.9 0.8 14.6 23.7 33.1 86.9 73.9 251.7
07/09 06:50 4.4 94 6.14 3.5 35 41 995 0.8 14.7 23.8 33.4 87.5 74.7 254.6
07/09 06:40 4.3 94 6.1 3.4 30 35 995.1 0.8 14.6 23.8 33.3 87.2 74.3 253.1
07/09 06:30 4.3 93 6.04 3.3 32 35 995.2 0.8 14.5 23.7 33.0 86.6 73.5 250.3
07/09 06:20 4.3 93 6.04 3.3 32 37 995.3 0.8 14.5 23.7 33.0 86.6 73.5 250.3
07/09 06:10 4.3 93 6.04 3.3 35 41 995.4 0.8 14.5 23.7 33.0 86.6 73.5 250.3
07/09 06:00 4.3 93 6.04 3.3 35 39 995.5 0.8 14.5 23.7 33.0 86.6 73.5 250.3
07/09 05:50 4.3 92 5.97 3.1 37 43 995.5 0.8 14.3 23.6 32.8 85.8 72.6 247.0
07/09 05:40 4.4 91 5.95 3.1 37 43 995.7 0.8 14.3 23.5 32.6 85.5 72.2 245.8
07/09 05:30 4.3 92 5.97 3.1 35 39 995.8 0.8 14.3 23.6 32.8 85.9 72.6 247.1
07/09 05:20 4.1 92 5.89 2.9 35 39 995.9 0.8 14.2 23.5 32.5 85.2 71.7 244.0
07/09 05:10 4.1 92 5.89 2.9 37 43 996.1 0.8 14.2 23.5 32.5 85.2 71.7 244.0
07/09 05:00 4.2 92 5.93 3 39 46 996.2 0.6 14.3 23.6 32.7 85.6 72.2 245.6
07/09 04:50 4.3 92 5.97 3.1 33 39 996.3 0.6 14.3 23.6 32.8 85.9 72.6 247.2
07/09 04:40 4.1 92 5.89 2.9 33 39 996.4 0.6 14.2 23.5 32.5 85.3 71.8 244.1
07/09 04:30 4 92 5.85 2.8 32 37 996.6 0.6 14.1 23.5 32.4 85.0 71.3 242.6
07/09 04:20 4 92 5.85 2.8 32 35 996.8 0.6 14.1 23.5 32.4 85.0 71.3 242.6
07/09 04:10 3.9 92 5.82 2.7 32 35 996.9 0.6 14.0 23.5 32.4 84.8 71.0 241.5
07/09 04:00 3.9 92 5.82 2.7 35 39 997 0.6 14.0 23.5 32.4 84.8 71.1 241.6
07/09 03:50 3.9 92 5.82 2.7 33 39 997.2 0.6 14.0 23.5 32.4 84.8 71.1 241.6
07/09 03:40 3.9 92 5.82 2.7 35 39 997.4 0.6 14.0 23.5 32.4 84.8 71.1 241.6
07/09 03:30 4 91 5.79 2.7 35 39 997.5 0.6 14.0 23.4 32.2 84.4 70.6 239.9
07/09 03:20 3.9 91 5.75 2.6 33 35 997.8 0.6 13.9 23.4 32.1 84.1 70.2 238.4
07/09 03:10 3.8 91 5.71 2.5 39 41 998 0.6 13.8 23.4 32.0 83.8 69.7 236.9
07/09 03:00 3.8 90 5.65 2.3 37 43 998.2 0.6 13.7 23.3 31.8 83.2 68.9 234.1
07/09 02:50 3.7 90 5.61 2.2 41 50 998.3 0.4 13.6 23.3 31.7 82.8 68.5 232.6
07/09 02:40 3.8 89 5.59 2.2 44 46 998.4 0.4 13.5 23.2 31.5 82.5 68.2 231.4
07/09 02:30 3.9 89 5.63 2.3 41 48 998.6 0.4 13.6 23.3 31.7 82.9 68.6 233.0
07/09 02:20 4.1 89 5.7 2.5 39 41 998.7 0.4 13.8 23.3 31.9 83.4 69.4 235.7
07/09 02:10 4.4 89 5.82 2.8 43 50 998.9 0.2 14.0 23.4 32.2 84.4 70.7 240.4
07/09 02:00 4.3 89 5.78 2.7 39 48 999 0.2 13.9 23.4 32.1 84.1 70.3 238.9
07/09 01:50 4.4 89 5.82 2.8 41 43 999.2 0.2 14.0 23.5 32.3 84.4 70.7 240.5
07/09 01:40 4.2 88 5.67 2.4 41 52 999.4 0.2 13.7 23.3 31.7 83.1 68.9 234.1
07/09 01:30 4.3 89 5.78 2.7 39 43 999.6 0.2 13.9 23.4 32.2 84.2 70.3 239.0
07/09 01:20 4.3 88 5.71 2.5 39 44 999.8 0.2 13.8 23.3 31.9 83.4 69.4 235.8
07/09 01:10 4.2 88 5.67 2.4 41 46 999.9 0.2 13.7 23.3 31.8 83.1 69.0 234.2
07/09 01:00 4.1 89 5.7 2.5 43 48 1000.1 0.2 13.8 23.4 31.9 83.6 69.5 236.0
07/09 00:50 4 89 5.66 2.4 43 50 1000.2 0.2 13.7 23.3 31.8 83.2 69.0 234.4
07/09 00:40 3.9 89 5.63 2.3 43 48 1000.2 0.2 13.6 23.3 31.7 83.0 68.7 233.3
07/09 00:30 3.9 88 5.56 2.1 44 50 1000.3 0.2 13.5 23.2 31.5 82.3 67.8 230.1
07/09 00:20 3.9 87 5.5 1.9 43 50 1000.4 0.2 13.3 23.1 31.2 81.6 67.0 227.3
07/09 00:10 4 87 5.54 2 43 48 1000.5 0.2 13.4 23.2 31.3 82.0 67.5 228.9
07/09 00:00 4 86 5.47 1.9 43 48 1000.6 0.2 13.3 23.0 31.1 81.2 66.5 225.7
06/09 23:50 4 86 5.47 1.9 43 48 1000.7 0.2 13.3 23.1 31.1 81.3 66.5 225.7
06/09 23:40 4.1 87 5.57 2.1 41 46 1000.9 0.2 13.5 23.2 31.4 82.2 67.8 230.1
06/09 23:30 3.9 87 5.5 1.9 41 46 1000.9 0.2 13.3 23.1 31.2 81.7 67.0 227.4
06/09 23:20 3.9 86 5.44 1.8 39 46 1001 0.2 13.2 23.0 31.0 81.1 66.2 224.6
06/09 23:10 3.9 86 5.44 1.8 39 44 1001.3 0.2 13.2 23.1 31.0 81.1 66.3 224.7
06/09 23:00 3.8 86 5.4 1.7 37 43 1001.5 0.2 13.1 23.0 30.9 80.8 65.8 223.2
06/09 22:50 3.6 86 5.33 1.5 37 41 1001.6 0.2 13.0 23.0 30.7 80.3 65.1 220.5
06/09 22:40 3.6 85 5.27 1.3 39 44 1001.8 0.2 12.8 22.9 30.5 79.6 64.3 217.8
06/09 22:30 3.6 83 5.14 1 43 48 1002 0.2 12.6 22.7 30.0 78.3 62.6 211.8
06/09 22:20 3.8 83 5.21 1.2 37 43 1002.1 0.2 12.7 22.7 30.2 78.8 63.4 214.5
06/09 22:10 3.8 83 5.21 1.2 35 41 1002.3 0.2 12.7 22.7 30.2 78.8 63.4 214.5
06/09 22:00 3.9 84 5.31 1.4 32 39 1002.5 0.2 12.9 22.9 30.5 79.8 64.6 218.9
06/09 21:50 3.9 83 5.25 1.3 30 35 1002.7 0.2 12.8 22.8 30.3 79.2 63.8 216.2
06/09 21:40 3.8 82 5.15 1 32 35 1002.8 0.2 12.6 22.7 30.0 78.2 62.6 211.9
06/09 21:30 3.7 81 5.05 0.8 32 35 1002.8 0.2 12.4 22.5 29.6 77.3 61.4 207.6
06/09 21:20 3.6 83 5.14 1 33 37 1003 0.2 12.6 22.7 30.0 78.4 62.7 212.0
06/09 21:10 3.5 83 5.11 0.9 32 35 1003.1 0.2 12.5 22.7 29.9 78.1 62.4 210.9
06/09 21:00 3.8 78 4.9 0.3 26 32 1003.3 0.2 12.0 22.3 29.0 75.7 59.4 200.6
06/09 20:50 3.5 78 4.8 0 30 33 1003.3 0.2 11.8 22.2 28.7 74.9 58.3 196.8
06/09 20:40 3.5 79 4.86 0.2 30 35 1003.4 0.2 12.0 22.3 29.0 75.5 59.1 199.5
06/09 20:30 3.6 78 4.83 0.1 32 35 1003.5 0.2 11.9 22.2 28.8 75.1 58.7 197.9
06/09 20:20 3.6 74 4.58 -0.6 33 39 1003.6 0.2 11.4 21.8 27.8 72.5 55.5 186.7
06/09 20:10 3.9 73 4.61 -0.5 32 39 1003.8 0.2 11.4 21.8 27.9 72.6 55.6 187.3
06/09 20:00 3.6 74 4.58 -0.6 33 37 1003.8 0.2 11.4 21.9 27.8 72.6 55.5 186.7
06/09 19:50 3.6 78 4.83 0.1 32 37 1003.8 0.2 11.9 22.2 28.8 75.2 58.7 198.0
06/09 19:40 3.7 79 4.93 0.4 33 39 1004 0.2 12.1 22.4 29.2 76.1 59.9 202.3
06/09 19:30 3.5 80 4.92 0.4 30 35 1004.1 0.2 12.1 22.4 29.2 76.2 59.9 202.4
06/09 19:20 3.4 76 4.65 -0.4 28 35 1004.1 0.2 11.5 22.0 28.2 73.5 56.5 190.4
06/09 19:10 3.5 74 4.55 -0.7 30 41 1004.1 0.2 11.3 21.8 27.8 72.4 55.2 185.6
06/09 19:00 3.5 73 4.49 -0.9 30 41 1004.2 0.2 11.2 21.8 27.5 71.8 54.4 183.0
06/09 18:50 3.5 73 4.49 -0.9 24 30 1004.3 0.2 11.2 21.8 27.5 71.8 54.4 183.0
06/09 18:40 3.1 73 4.37 -1.3 20 24 1004.4 0.2 10.9 21.7 27.2 70.9 53.2 178.5
06/09 18:30 3.2 74 4.46 -1 22 28 1004.5 0.2 11.1 21.8 27.5 71.7 54.2 182.3
06/09 18:20 3.1 72 4.31 -1.4 26 30 1004.5 0.2 10.8 21.6 27.0 70.3 52.4 175.8
06/09 18:10 3.3 72 4.37 -1.3 24 30 1004.4 0.2 10.9 21.6 27.2 70.7 53.0 178.1
06/09 18:00 3.2 73 4.4 -1.2 20 26 1004.4 0.2 11.0 21.7 27.3 71.1 53.5 179.6
06/09 17:50 3.1 71 4.25 -1.6 22 30 1004.4 0.2 10.7 21.5 26.8 69.7 51.6 173.2
06/09 17:40 3.1 72 4.31 -1.4 20 26 1004.4 0.2 10.8 21.6 27.0 70.3 52.4 175.8
06/09 17:30 3.1 73 4.37 -1.3 26 32 1004.3 0.2 10.9 21.7 27.2 70.9 53.2 178.5
06/09 17:20 3 76 4.52 -0.8 24 30 1004.3 0.2 11.3 21.9 27.8 72.5 55.1 185.5
06/09 17:10 2.9 76 4.49 -0.9 28 37 1004.5 0.2 11.2 21.9 27.8 72.3 54.8 184.4
06/09 17:00 3.1 74 4.43 -1.1 28 33 1004.4 0.2 11.1 21.8 27.5 71.5 53.9 181.2
06/09 16:50 3.1 72 4.31 -1.4 28 32 1004.4 0.2 10.8 21.6 27.0 70.3 52.4 175.8
06/09 16:40 3 70 4.17 -1.9 24 32 1004.5 0.2 10.5 21.4 26.5 68.9 50.7 169.8
06/09 16:30 2.7 75 4.37 -1.3 24 30 1004.5 0.2 10.9 21.8 27.4 71.3 53.4 179.4
06/09 16:20 2.9 79 4.67 -0.4 24 32 1004.4 0.2 11.6 22.2 28.5 74.2 57.2 192.5
06/09 16:10 2.7 81 4.72 -0.2 28 37 1004.5 0.2 11.7 22.3 28.7 74.9 58.0 195.3
06/09 16:00 2.7 82 4.78 -0.1 26 32 1004.5 0.2 11.8 22.4 29.0 75.6 58.7 198.1
06/09 15:50 2.5 81 4.66 -0.4 24 30 1004.6 0.2 11.6 22.3 28.6 74.5 57.3 193.1
06/09 15:40 2.6 80 4.63 -0.5 26 37 1004.7 0.2 11.5 22.2 28.4 74.1 56.9 191.5
06/09 15:30 3.1 80 4.79 0 22 26 1004.7 0 11.8 22.3 28.9 75.3 58.6 197.6
06/09 15:20 2.6 82 4.75 -0.2 26 32 1004.7 0 11.8 22.4 28.9 75.4 58.4 197.0

Last Refresh: 07-Sep-2026 07:28:10

Bureau of Meteorology